Date String (YYYY-MM-DD hh:mm:ss) UTC,Instrument flags,absolute air pressure of the measurement (hPa),sample flow rate (lpm),inlet stack bypass flow (lpm),air temperature of the measurement (°C),ambient temperature measured by the external sensor (°C),aerosol sample conditioner tube jacket temperature (°C),OPC LED temperature (°C),internal box temperature (°C),relative humidity of the measurement (%),span deviation,mass concentration of particles derived from Lorenz-Mie calculation of OPC scattering (μg/m³),mass concentration of particles derived from Lorenz-Mie calculation of OPC scattering (μg/m³),mass concentration of particles derived from Lorenz-Mie calculation of OPC scattering (μg/m³)
DateTimeUTC,F1_M11,P_M11,Q1_M11,Q2_M11,T1_M11,T2_M11,T3_M11,T4_M11,T5_M11,U1_M11,ZSPAN_M11,X2_M11,X0_M11,X1_M11
2024-04-20 00:00:00,SystemResetWarning,0835.3,5.00,000.00,019.6,019.1,000.0,028.1,021.4,024.5,0000.0,0004.29,0006.49,0003.97
2024-04-20 00:01:00,SystemResetWarning,0835.3,5.00,000.00,019.6,019.1,000.0,028.1,021.4,024.5,0000.0,0004.29,0006.48,0003.98
2024-04-20 00:02:00,SystemResetWarning,0834.9,4.99,000.00,019.6,019.1,000.0,028.1,021.4,024.6,0000.0,0004.27,0006.35,0003.98
2024-04-20 00:03:00,SystemResetWarning,0835.0,5.00,000.00,019.6,019.1,000.0,028.1,021.4,025.3,0000.0,0004.25,0006.26,0003.97
2024-04-20 00:04:00,SystemResetWarning,0835.0,5.00,000.00,019.6,019.1,000.0,028.1,021.4,025.1,0000.0,0004.27,0006.35,0003.97
2024-04-20 00:05:00,SystemResetWarning,0835.0,5.01,000.00,019.6,019.1,000.0,028.1,021.4,024.8,0000.0,0004.29,0006.44,0003.99
2024-04-20 00:06:00,SystemResetWarning,0835.0,5.00,000.00,019.6,019.1,000.0,028.1,021.4,024.7,0000.0,0004.31,0006.43,0004.01
2024-04-20 00:07:00,SystemResetWarning,0834.9,5.00,000.00,019.6,019.1,000.0,028.1,021.4,024.7,0000.0,0004.30,0006.30,0004.04
2024-04-20 00:08:00,SystemResetWarning,0834.8,5.00,000.00,019.6,019.1,000.0,028.1,021.4,024.7,0000.0,0004.31,0006.23,0004.06
2024-04-20 00:09:00,SystemResetWarning,0835.0,5.00,000.00,019.6,019.1,000.0,028.1,021.4,024.7,0000.0,0004.31,0006.16,0004.08
2024-04-20 00:10:00,SystemResetWarning,0834.9,5.00,000.00,019.6,019.1,000.0,028.1,021.4,024.7,0000.0,0004.34,0006.15,0004.10
2024-04-20 00:11:00,SystemResetWarning,0834.9,5.00,000.00,019.6,019.1,000.0,028.1,021.4,024.7,0000.0,0004.32,0006.01,0004.10
2024-04-20 00:12:00,SystemResetWarning,0834.8,5.00,000.00,019.6,019.1,000.0,028.1,021.4,024.7,0000.0,0004.35,0006.10,0004.10
2024-04-20 00:13:00,SystemResetWarning,0834.9,5.00,000.00,019.6,019.1,000.0,028.1,021.4,024.6,0000.0,0004.36,0006.17,0004.10
2024-04-20 00:14:00,SystemResetWarning,0834.9,5.00,000.00,019.7,019.1,000.0,028.1,021.4,024.6,0000.0,0004.38,0006.29,0004.11
2024-04-20 00:15:00,SystemResetWarning,0834.9,4.99,000.00,019.7,019.1,000.0,028.1,021.4,024.6,0000.0,0004.38,0006.28,0004.13
2024-04-20 00:16:00,SystemResetWarning,0834.9,5.00,000.00,019.7,019.1,000.0,028.1,021.4,024.6,0000.0,0004.36,0006.16,0004.13
2024-04-20 00:17:00,SystemResetWarning,0834.9,5.00,000.00,019.7,019.1,000.0,028.1,021.4,024.6,0000.0,0004.36,0006.21,0004.12
2024-04-20 00:18:00,SystemResetWarning,0835.0,5.01,000.00,019.7,019.1,000.0,028.1,021.4,024.6,0000.0,0004.35,0006.23,0004.10
2024-04-20 00:19:00,SystemResetWarning,0835.0,5.01,000.00,019.7,019.1,000.0,028.1,021.5,024.5,0000.0,0004.34,0006.19,0004.08
2024-04-20 00:20:00,SystemResetWarning,0835.0,5.01,000.00,019.7,019.1,000.0,028.1,021.5,024.5,0000.0,0004.33,0006.16,0004.07
2024-04-20 00:21:00,SystemResetWarning,0835.0,5.00,000.00,019.7,019.1,000.0,028.1,021.5,024.6,0000.0,0004.32,0006.11,0004.06
2024-04-20 00:22:00,SystemResetWarning,0835.0,4.99,000.00,019.7,019.1,000.0,028.1,021.4,024.6,0000.0,0004.30,0006.10,0004.06
2024-04-20 00:23:00,SystemResetWarning,0834.9,5.00,000.00,019.7,019.1,000.0,028.1,021.4,024.6,0000.0,0004.28,0006.06,0004.05
2024-04-20 00:24:00,SystemResetWarning,0834.9,4.99,000.00,019.7,019.1,000.0,028.1,021.4,024.5,0000.0,0004.30,0006.10,0004.07
2024-04-20 00:25:00,SystemResetWarning,0834.9,5.00,000.00,019.7,019.1,000.0,028.1,021.4,024.5,0000.0,0004.35,0006.18,0004.11
2024-04-20 00:26:00,SystemResetWarning,0834.8,5.00,000.00,019.7,019.1,000.0,028.1,021.4,024.4,0000.0,0004.38,0006.21,0004.13
2024-04-20 00:27:00,SystemResetWarning,0834.9,5.01,000.00,019.7,019.1,000.0,028.1,021.4,024.4,0000.0,0004.42,0006.42,0004.14
2024-04-20 00:28:00,SystemResetWarning,0834.9,5.00,000.00,019.7,019.1,000.0,028.1,021.4,024.4,0000.0,0004.46,0006.50,0004.18
2024-04-20 00:29:00,SystemResetWarning,0834.9,5.01,000.00,019.7,019.1,000.0,028.2,021.4,024.3,0000.0,0004.54,0006.78,0004.23
2024-04-20 00:30:00,SystemResetWarning,0834.9,5.01,000.00,019.7,019.1,000.0,028.2,021.4,024.3,0000.0,0004.60,0007.01,0004.29
2024-04-20 00:31:00,SystemResetWarning,0835.1,5.00,000.00,019.7,019.1,000.0,028.2,021.4,024.3,0000.0,0004.65,0007.37,0004.34
2024-04-20 00:32:00,SystemResetWarning,0835.2,5.00,000.00,019.7,019.1,000.0,028.2,021.4,024.2,0000.0,0004.72,0007.63,0004.38
2024-04-20 00:33:00,SystemResetWarning,0835.0,5.00,000.00,019.7,019.1,000.0,028.1,021.4,024.2,0000.0,0004.79,0007.71,0004.42
2024-04-20 00:34:00,SystemResetWarning,0835.0,5.00,000.00,019.7,019.1,000.0,028.1,021.4,024.2,0000.0,0004.84,0007.74,0004.45
2024-04-20 00:35:00,SystemResetWarning,0835.0,5.00,000.00,019.7,019.1,000.0,028.2,021.4,024.2,0000.0,0004.87,0007.78,0004.48
2024-04-20 00:36:00,SystemResetWarning,0835.0,5.00,000.00,019.7,019.1,000.0,028.1,021.4,024.2,0000.0,0004.91,0007.88,0004.49
2024-04-20 00:37:00,SystemResetWarning,0835.0,4.99,000.00,019.7,019.1,000.0,028.1,021.4,024.2,0000.0,0004.92,0007.93,0004.50
2024-04-20 00:38:00,SystemResetWarning,0835.0,4.99,000.00,019.7,019.1,000.0,028.1,021.4,024.1,0000.0,0004.93,0007.90,0004.52
2024-04-20 00:39:00,SystemResetWarning,0835.0,5.00,000.00,019.7,019.1,000.0,028.2,021.4,024.1,0000.0,0004.92,0007.86,0004.53
2024-04-20 00:40:00,SystemResetWarning,0835.0,5.01,000.00,019.7,019.1,000.0,028.2,021.4,024.1,0000.0,0004.94,0007.85,0004.54
2024-04-20 00:41:00,SystemResetWarning,0835.0,5.01,000.00,019.7,019.1,000.0,028.1,021.4,024.1,0000.0,0004.97,0007.83,0004.55
2024-04-20 00:42:00,SystemResetWarning,0835.0,5.01,000.00,019.7,019.1,000.0,028.2,021.4,024.1,0000.0,0004.98,0007.99,0004.56
2024-04-20 00:43:00,SystemResetWarning,0835.0,4.99,000.00,019.7,019.1,000.0,028.1,021.4,024.2,0000.0,0005.01,0007.95,0004.58
2024-04-20 00:44:00,SystemResetWarning,0835.1,4.99,000.00,019.7,019.1,000.0,028.1,021.4,024.2,0000.0,0005.05,0008.00,0004.62
2024-04-20 00:45:00,SystemResetWarning,0835.1,5.00,000.00,019.7,019.1,000.0,028.1,021.4,024.2,0000.0,0005.08,0008.03,0004.66
2024-04-20 00:46:00,SystemResetWarning,0835.1,5.01,000.00,019.6,019.1,000.0,028.1,021.4,024.2,0000.0,0005.12,0008.11,0004.69
2024-04-20 00:47:00,SystemResetWarning,0835.1,5.01,000.00,019.7,019.1,000.0,028.2,021.4,024.3,0000.0,0005.14,0008.19,0004.73
2024-04-20 00:48:00,SystemResetWarning,0835.1,4.99,000.00,019.7,019.1,000.0,028.1,021.4,025.0,0000.0,0005.14,0008.15,0004.76
2024-04-20 00:49:00,SystemResetWarning,0835.1,4.99,000.00,019.6,019.1,000.0,028.1,021.4,025.0,0000.0,0005.16,0008.11,0004.79
2024-04-20 00:50:00,SystemResetWarning,0835.1,5.00,000.00,019.6,019.1,000.0,028.1,021.4,024.6,0000.0,0005.20,0008.13,0004.84
2024-04-20 00:51:00,SystemResetWarning,0835.1,5.01,000.00,019.7,019.1,000.0,028.2,021.4,024.5,0000.0,0005.22,0008.19,0004.86
2024-04-20 00:52:00,SystemResetWarning,0835.2,5.00,000.00,019.7,019.1,000.0,028.2,021.4,024.5,0000.0,0005.24,0008.19,0004.90
2024-04-20 00:53:00,SystemResetWarning,0835.2,5.00,000.00,019.7,019.1,000.0,028.2,021.4,024.4,0000.0,0005.26,0007.94,0004.94
2024-04-20 00:54:00,SystemResetWarning,0835.2,5.00,000.00,019.7,019.1,000.0,028.2,021.5,024.4,0000.0,0005.26,0007.79,0004.96
2024-04-20 00:55:00,SystemResetWarning,0835.2,5.00,000.00,019.7,019.1,000.0,028.1,021.5,024.4,0000.0,0005.26,0007.84,0004.98
2024-04-20 00:56:00,SystemResetWarning,0835.2,4.99,000.00,019.7,019.1,000.0,028.2,021.5,024.5,0000.0,0005.31,0007.89,0005.00
2024-04-20 00:57:00,SystemResetWarning,0835.3,5.00,000.00,019.7,019.1,000.0,028.2,021.5,024.4,0000.0,0005.32,0007.86,0005.02
2024-04-20 00:58:00,SystemResetWarning,0835.3,5.00,000.00,019.7,019.1,000.0,028.2,021.4,024.4,0000.0,0005.33,0007.72,0005.03
2024-04-20 00:59:00,SystemResetWarning,0835.3,5.01,000.00,019.7,019.1,000.0,028.2,021.4,024.5,0000.0,0005.39,0007.82,0005.06
